[[{"header":{"parameterUnit":"m.s-1","parameterCategory":1,"la1":30.2991,"la2":30.254,"lo1":-89.0895,"lo2":-89.0444,"dy":0.0017,"dx":0.0017,"nx":28,"ny":28,"refTime":"2023-08-17T21:00:00:Z","depth":0,"parameterNumber":2,"parameterNumberName":"U-component_of_WINDS"},"data":[0,0,0,0,0,0,0,0,0,0,0,0,0,0,0,0,0,0,0,0,0,0,0,0,0,0,0,0,0,0,0,0,0,0,0,0,0,0,0,0,0,0,0,0,0,0,0,0,0,0,0,0,0,0,0,0,0,0,1.4979,1.498,0,1.5071,1.5072,1.5073,1.5078,1.5077,1.5076,1.5075,1.517,1.5174,1.5177,0,0,0,0,0,0,0,0,0,0,0,0,0,1.4807,1.4811,1.4979,1.498,1.4981,1.5071,1.5072,1.5073,1.5078,1.5077,1.5076,1.5074,1.5169,1.5173,1.5178,0,0,0,0,0,0,0,0,0,0,0,0,0,1.4889,1.4812,1.4979,1.4995,1.4997,1.507,1.5072,1.5073,1.5078,1.5077,1.5075,1.5074,1.5168,1.5173,1.5178,1.5243,0,0,1.5194,1.5197,0,0,0,0,0,0,0,0,1.4884,1.4895,1.4991,1.4994,1.4996,1.5061,1.5046,1.513,1.5079,1.5048,1.5075,1.5073,1.5135,1.5143,1.5164,1.5247,1.5251,1.5195,1.5198,1.52,1.5202,0,0,0,0,0,0,0,1.4879,1.4891,1.5015,1.4992,1.4996,1.4997,1.5007,1.5062,1.5099,1.505,1.5051,1.5061,1.5137,1.5159,1.5166,1.5253,1.5195,1.5199,1.5203,1.5205,1.539,1.5392,0,0,0,0,0,0,1.487,1.4887,1.5012,1.5018,1.4935,1.5001,1.5012,1.5042,1.5099,1.5106,1.5063,1.5061,1.5151,1.516,1.517,1.5246,1.52,1.5205,1.5208,1.5388,1.539,1.5392,0,0,0,0,0,0,1.4866,1.4881,1.5009,1.4952,1.4969,1.5006,1.5039,1.5045,1.5067,1.5108,1.5115,1.5079,1.515,1.5162,1.5224,1.525,1.5208,1.5212,1.5386,1.5389,1.5391,1.5402,0,0,0,0,0,0,1.4861,1.488,1.4905,1.4953,1.4972,1.5061,1.5041,1.5048,1.5076,1.5075,1.5125,1.5132,1.5149,1.5216,1.5229,1.5256,1.5216,1.5384,1.5387,1.539,1.5399,1.5404,1.5409,0,0,0,0,0,1.4855,1.4905,1.4906,1.4921,1.5004,1.5063,1.5073,1.5092,1.5078,1.5103,1.5129,1.513,1.5245,1.5222,1.5237,1.5266,1.5382,1.5386,1.539,1.5397,1.5403,1.5409,0,0,0,0,0,0,1.486,1.4912,1.4913,1.4981,1.5017,1.5063,1.5096,1.5099,1.5141,1.5138,1.5161,1.5172,1.5232,1.5256,1.5229,1.533,1.5312,1.5319,1.5312,1.5319,1.5323,1.5315,1.5221,0,0,0,0,0,1.4869,1.4912,1.4955,1.501,1.5028,1.5059,1.5085,1.5097,1.5135,1.5151,1.5182,1.522,1.5264,1.5293,1.5336,1.5403,1.5413,1.5431,1.5435,1.5439,1.5444,1.5479,1.5486,1.5405,1.5405,1.5405,0,0,1.4887,1.4921,1.4947,1.5012,1.5042,1.5085,1.5072,1.512,1.5152,1.5159,1.5217,1.5241,1.5285,1.5348,1.5378,1.537,1.5469,1.5444,1.5447,1.545,1.5484,1.5491,1.5498,1.5408,1.5407,1.5407,0,0,1.4943,1.4974,1.5022,1.5051,1.5096,1.5116,1.5127,1.5173,1.5188,1.5248,1.5253,1.5292,1.5369,1.5398,1.5424,1.5489,1.549,1.5503,1.5527,1.556,1.5567,1.5572,1.5593,1.5601,1.5508,1.5508,1.5508,0,1.4961,1.5027,1.5046,1.5093,1.512,1.5127,1.5175,1.5203,1.526,1.5278,1.5268,1.5363,1.5393,1.5462,1.5478,1.5499,1.5511,1.5496,1.5564,1.557,1.5576,1.5596,1.5604,1.5509,1.5509,1.5509,1.5509,0,1.5045,1.5091,1.5124,1.5177,1.5208,1.5255,1.5281,1.531,1.5319,1.5339,1.5398,1.5434,1.5484,1.5502,1.5511,1.5571,1.5565,1.556,1.5541,1.5584,1.5603,1.5611,1.5511,1.551,1.551,1.551,0,0,1.5106,1.5168,1.518,1.5203,1.5252,1.5287,1.5334,1.5381,1.5405,1.5444,1.5482,1.5546,1.5541,1.5569,1.5582,1.5611,1.5657,1.5602,1.5604,1.5609,1.5723,1.5725,1.5734,1.5659,1.5661,1.5662,1.5719,0,1.5166,1.5248,1.5266,1.5337,1.5378,1.5385,1.5425,1.5459,1.548,1.5517,1.554,1.5583,1.5574,1.5591,1.5621,1.5645,1.568,1.5642,1.5694,1.5696,1.5681,1.5745,1.5748,1.5799,1.5727,1.5728,1.5729,0,1.5246,1.5285,1.5359,1.5401,1.5419,1.5455,1.5498,1.5535,1.5573,1.5585,1.5616,1.5625,1.5673,1.5653,1.5719,1.5692,1.5715,1.573,1.5732,1.5736,1.5713,1.5748,1.5817,1.5824,1.5741,1.574,1.574,0,1.528,1.5351,1.5404,1.5424,1.5474,1.5499,1.5521,1.5558,1.5584,1.5623,1.564,1.5684,1.5707,1.5741,1.5761,1.5745,1.5824,1.5807,1.5834,1.5834,1.5849,1.5848,1.592,1.5867,1.5867,1.5867,1.5867,0,1.5343,1.5388,1.542,1.5452,1.5502,1.5522,1.5571,1.5593,1.5625,1.5661,1.5671,1.5705,1.573,1.5768,1.5784,1.5834,1.5845,1.5856,1.5859,1.5854,1.5852,1.5868,1.5864,1.5869,1.5869,1.5868,1.5868,0,1.5388,1.5412,1.547,1.5512,1.5524,1.5559,1.5594,1.5626,1.5646,1.5691,1.5703,1.5735,1.5779,1.5802,1.5858,1.5869,1.5924,1.5927,1.5911,1.5912,1.5937,1.5933,1.602,1.6032,1.5973,1.5974,1.5974,0,1.5426,1.546,1.5506,1.553,1.5552,1.5593,1.5619,1.564,1.5667,1.5712,1.5738,1.5782,1.5818,1.5888,1.5916,1.5958,1.596,1.5988,1.5967,1.5959,1.5958,1.5955,1.5957,1.5991,1.5991,1.5992,1.5992,0,1.5489,1.5499,1.5537,1.5578,1.561,1.5644,1.5677,1.5697,1.5723,1.5753,1.5798,1.5826,1.5882,1.5925,1.5969,1.5991,1.5995,1.5999,1.6007,1.6001,1.5989,1.5993,1.5918,1.5996,1.5996,1.5996,1.5995,1.5995,1.5531,1.556,1.5596,1.5638,1.5665,1.5696,1.5726,1.5749,1.5787,1.5833,1.5843,1.589,1.5925,1.5984,1.6008,1.6044,1.6039,1.6051,1.6054,1.6056,1.6056,1.5985,1.6053,1.6053,1.6052,1.6052,1.6052,0,1.5592,1.5615,1.5653,1.5699,1.5731,1.5733,1.5769,1.5796,1.5837,1.5869,1.5904,1.5954,1.5996,1.6026,1.6068,1.6091,1.6094,1.6102,1.6099,1.6104,1.606,1.6047,1.6098,1.6098,1.6098,1.6098,1.6098,1.6098,1.5628,1.5678,1.5691,1.5754,1.5777,1.5822,1.5842,1.587,1.5896,1.5951,1.5986,1.6005,1.6036,1.608,1.6118,1.6126,1.614,1.6147,1.6154,1.6112,1.6107,1.6102,1.6091,1.615,1.615,1.6195,1.6196,1.6196]},{"header":{"parameterUnit":"m.s-1","parameterCategory":1,"la1":30.2991,"la2":30.254,"lo1":-89.0895,"lo2":-89.0444,"dy":0.0017,"dx":0.0017,"nx":28,"ny":28,"refTime":"2023-08-17T21:00:00:Z","depth":0,"parameterNumber":3,"parameterNumberName":"V-component_of_WINDS"},"data":[0,0,0,0,0,0,0,0,0,0,0,0,0,0,0,0,0,0,0,0,0,0,0,0,0,0,0,0,0,0,0,0,0,0,0,0,0,0,0,0,0,0,0,0,0,0,0,0,0,0,0,0,0,0,0,0,0,0,5.8347,5.8346,0,5.8309,5.8309,5.8308,5.8207,5.8204,5.8202,5.82,5.8164,5.8166,5.8167,0,0,0,0,0,0,0,0,0,0,0,0,0,5.8333,5.8333,5.8347,5.8346,5.8346,5.8309,5.8309,5.8308,5.8207,5.8204,5.8202,5.8199,5.8164,5.8165,5.8167,0,0,0,0,0,0,0,0,0,0,0,0,0,5.8322,5.8334,5.8347,5.8291,5.8285,5.8309,5.8309,5.8308,5.8208,5.8204,5.8201,5.8198,5.8164,5.8165,5.8167,5.8243,0,0,5.8172,5.8173,0,0,0,0,0,0,0,0,5.8322,5.8322,5.8299,5.8295,5.8289,5.8259,5.8291,5.8286,5.8208,5.8237,5.82,5.8196,5.8199,5.8197,5.8198,5.8241,5.824,5.8172,5.8173,5.8174,5.8174,0,0,0,0,0,0,0,5.8323,5.8323,5.8332,5.8299,5.8293,5.8268,5.8263,5.8289,5.8237,5.8234,5.8227,5.8224,5.8195,5.8196,5.8196,5.8239,5.8172,5.8174,5.8175,5.8175,5.8343,5.8346,0,0,0,0,0,0,5.8332,5.8324,5.8333,5.8331,5.8298,5.8271,5.8265,5.8272,5.8236,5.8228,5.8227,5.8219,5.8195,5.8194,5.8194,5.828,5.8174,5.8175,5.8176,5.834,5.8344,5.8348,0,0,0,0,0,0,5.8332,5.8333,5.8335,5.8326,5.8324,5.8275,5.8283,5.8273,5.8274,5.823,5.8221,5.8237,5.8192,5.8192,5.8231,5.8277,5.8176,5.8178,5.8336,5.8341,5.8346,5.8453,0,0,0,0,0,0,5.8332,5.8334,5.8362,5.8327,5.8325,5.8372,5.8286,5.8275,5.8277,5.8267,5.8238,5.823,5.819,5.8229,5.8233,5.8278,5.8179,5.8331,5.8338,5.8344,5.8445,5.8461,5.8475,0,0,0,0,0,5.8332,5.8394,5.8364,5.8365,5.8358,5.8374,5.8373,5.8325,5.8281,5.8309,5.8281,5.8231,5.8272,5.8234,5.8238,5.8284,5.8328,5.8336,5.8344,5.8438,5.8458,5.8475,0,0,0,0,0,0,5.8437,5.8389,5.8354,5.8407,5.8396,5.8357,5.8391,5.8348,5.8349,5.834,5.8281,5.8275,5.8322,5.8307,5.8266,5.8355,5.8292,5.8301,5.8363,5.8381,5.8396,5.8398,5.818,0,0,0,0,0,5.8466,5.8482,5.844,5.8491,5.8487,5.844,5.8445,5.8409,5.8395,5.839,5.8365,5.8354,5.8364,5.8372,5.8379,5.8443,5.8435,5.8476,5.8492,5.8504,5.8512,5.8543,5.8561,5.8373,5.8373,5.8373,0,0,5.8527,5.8503,5.8517,5.8511,5.8498,5.8517,5.8437,5.846,5.8473,5.8394,5.8428,5.841,5.8394,5.8446,5.8467,5.8434,5.8562,5.8514,5.8524,5.8525,5.8553,5.8571,5.8587,5.8379,5.8378,5.8377,0,0,5.8646,5.8631,5.867,5.8659,5.8639,5.8608,5.8618,5.8586,5.857,5.8604,5.8544,5.856,5.858,5.857,5.8568,5.8685,5.8639,5.8689,5.8767,5.8798,5.8813,5.8826,5.8867,5.8882,5.8698,5.8698,5.8698,0,5.8725,5.8749,5.8697,5.8723,5.8723,5.8651,5.8691,5.8683,5.8668,5.8669,5.8633,5.8655,5.8639,5.8687,5.8715,5.8717,5.8726,5.8691,5.8815,5.8828,5.8839,5.8877,5.8892,5.8704,5.8703,5.8703,5.8702,0,5.8845,5.8864,5.8899,5.8884,5.8888,5.8921,5.8874,5.8885,5.8849,5.8822,5.8857,5.8836,5.8837,5.8847,5.8812,5.889,5.887,5.8826,5.876,5.8864,5.8898,5.8913,5.8713,5.8711,5.8709,5.8707,0,0,5.9029,5.8985,5.8998,5.899,5.8964,5.8978,5.9009,5.9009,5.9018,5.9011,5.9035,5.9053,5.9012,5.9009,5.8974,5.9002,5.9094,5.8953,5.8952,5.8979,5.9177,5.921,5.9227,5.9065,5.9067,5.9069,5.9178,0,5.914,5.9188,5.9142,5.92,5.9216,5.9149,5.9176,5.9163,5.9139,5.915,5.9124,5.9137,5.9082,5.908,5.9105,5.9078,5.9133,5.907,5.9086,5.9087,5.909,5.9246,5.928,5.9384,5.9192,5.9194,5.9196,0,5.9276,5.9273,5.9332,5.9302,5.9307,5.9331,5.9328,5.9339,5.9324,5.9304,5.9302,5.9258,5.9287,5.9225,5.9264,5.9222,5.9226,5.9214,5.9217,5.9215,5.9146,5.9247,5.9416,5.9431,5.9217,5.9215,5.9214,0,5.9402,5.9413,5.9449,5.9445,5.9411,5.943,5.9417,5.9398,5.9401,5.9399,5.94,5.9402,5.9402,5.9405,5.9364,5.9322,5.9407,5.9342,5.9392,5.9393,5.9411,5.941,5.9582,5.9417,5.9417,5.9417,5.9417,0,5.9529,5.9568,5.9505,5.9527,5.9569,5.9516,5.9559,5.9539,5.9523,5.9541,5.9484,5.9502,5.9447,5.946,5.9428,5.9464,5.9466,5.9451,5.9441,5.9455,5.9456,5.9455,5.9446,5.9421,5.942,5.9419,5.9419,0,5.9676,5.9635,5.967,5.9635,5.9627,5.9659,5.9629,5.9649,5.9621,5.9645,5.9647,5.9605,5.9617,5.9576,5.9582,5.956,5.9613,5.9593,5.9618,5.9611,5.9663,5.9658,5.9838,5.9859,5.9683,5.9685,5.9686,0,5.9759,5.9787,5.9754,5.9761,5.9751,5.9764,5.9766,5.9717,5.9722,5.9707,5.9728,5.9735,5.9738,5.9761,5.9731,5.9735,5.9713,5.9776,5.9714,5.9726,5.9713,5.9711,5.9713,5.9789,5.9791,5.9793,5.9794,0,5.9911,5.9889,5.9894,5.9893,5.9898,5.9895,5.9888,5.9897,5.9844,5.9853,5.9864,5.9866,5.9872,5.9879,5.9877,5.9865,5.9821,5.9815,5.9826,5.9839,5.9852,5.9844,5.9652,5.981,5.9809,5.9807,5.9807,5.9806,6.0026,6.0048,6.0028,6.0036,6.0025,6.002,6.0037,6.0011,6.0019,6.0019,5.999,6.0007,5.9991,5.9983,5.9975,5.9988,5.9959,5.9976,5.998,5.9985,5.9993,5.9851,5.9988,5.9988,5.9987,5.9987,5.9986,0,6.0174,6.0158,6.0166,6.0157,6.0164,6.0122,6.0112,6.0121,6.0136,6.0125,6.0128,6.0141,6.0149,6.012,6.0124,6.014,6.012,6.0142,6.014,6.0137,6.0019,6.0008,6.0158,6.0158,6.0158,6.0158,6.0158,6.0158,6.0251,6.0284,6.0261,6.0289,6.0273,6.0288,6.0286,6.0281,6.0272,6.0288,6.0294,6.0275,6.0257,6.0258,6.0264,6.0255,6.0259,6.0288,6.0273,6.0162,6.0146,6.013,6.0119,6.0289,6.029,6.0389,6.039,6.0391]}]]